Truckee-Tahoe, CA

9:08 PM PDT on March 26, 2017 (GMT -0700)
Truckee-Tahoe

Weather History for KTRK - September, 2013

Change the Weather History Date:

Saturday, September 28, 2013

  Actual Average Record
Temperature  
Mean Temperature 46 °F -  
Max Temperature 66 °F 70 °F 86 °F (2003)
Min Temperature 26 °F 33 °F 21 °F (1986)
Degree Days  
Heating Degree Days 19    
Moisture  
Dew Point 26 °F    
Average Humidity 58    
Maximum Humidity 93    
Minimum Humidity 26    
Precipitation  
Precipitation 0.00 in - - ()
Sea Level Pressure  
Sea Level Pressure 30.22 in    
Wind  
Wind Speed 3 mph (SSW)    
Max Wind Speed 20 mph    
Max Gust Speed 26 mph    
Visibility 10 miles    
Events      
Averages and records for this station are not official NWS values.
T = Trace of Precipitation, MM = Missing Value Source: NWS Daily Summary

Daily Weather History Graph

Daily Weather History Graph

Search for Another Location

Airport or City:

Trip Planner

Search our weather history database for the weather conditions in past years. The results will help you decide how hot, cold, wet, or windy it might be!

Date:

Astronomy

Sep. 28, 2013 Rise Set
Actual Time 6:54 AM PDT 6:47 PM PDT
Civil Twilight 6:27 AM PDT 7:14 PM PDT
Nautical Twilight 5:56 AM PDT 7:45 PM PDT
Astronomical Twilight 5:24 AM PDT 8:16 PM PDT
Moon 12:47 AM PDT (9/28) 3:07 PM PDT (9/28)
Length of Visible Light 12h 46m
Length of Day
11h 53m
Waning Crescent, 35% of the Moon is Illuminated
Sep 28
Waning Crescent
Oct 4
New
Oct 11
First Quarter
Oct 18
Full
Oct 26
Last Quarter

Hourly Weather History & Observations

Time (PDT) Temp. Windchill Dew Point Humidity Pressure Visibility Wind Dir Wind Speed Gust Speed Precip Events Conditions
12:15 AM 32.0 °F - 24.8 °F 75% 30.23 in 10.0 mi Calm Calm - N/A   Clear
12:35 AM 30.2 °F - 24.8 °F 80% 30.23 in 10.0 mi Calm Calm - N/A   Clear
12:55 AM 32.0 °F - 24.8 °F 75% 30.23 in 8.0 mi Calm Calm - N/A   Clear
1:15 AM 28.4 °F 23.3 °F 24.8 °F 86% 30.23 in 10.0 mi SSE 4.6 mph - N/A   Clear
1:35 AM 28.4 °F - 23.0 °F 80% 30.23 in 10.0 mi Calm Calm - N/A   Clear
1:55 AM 32.0 °F - 24.8 °F 75% 30.23 in 10.0 mi Calm Calm - N/A   Clear
2:15 AM 32.0 °F - 24.8 °F 75% 30.23 in 10.0 mi Calm Calm - N/A   Clear
2:35 AM 30.2 °F 26.7 °F 24.8 °F 80% 30.23 in 10.0 mi SSE 3.5 mph - N/A   Clear
2:55 AM 30.2 °F - 24.8 °F 80% 30.22 in 10.0 mi Calm Calm - N/A   Clear
3:15 AM 32.0 °F - 24.8 °F 75% 30.22 in 10.0 mi Calm Calm - N/A   Clear
3:35 AM 28.4 °F - 24.8 °F 86% 30.22 in 10.0 mi Calm Calm - N/A   Clear
3:55 AM 28.4 °F - 24.8 °F 86% 30.22 in 10.0 mi Calm Calm - N/A   Clear
4:15 AM 28.4 °F - 24.8 °F 86% 30.21 in 10.0 mi Calm Calm - N/A   Clear
4:35 AM 28.4 °F - 24.8 °F 86% 30.21 in 10.0 mi Calm Calm - N/A   Clear
4:55 AM 28.4 °F 24.6 °F 24.8 °F 86% 30.22 in 10.0 mi ENE 3.5 mph - N/A   Clear
5:15 AM 26.6 °F - 23.0 °F 86% 30.22 in 10.0 mi Calm Calm - N/A   Clear
5:35 AM 26.6 °F - 23.0 °F 86% 30.22 in 10.0 mi Calm Calm - N/A   Clear
5:55 AM 26.6 °F - 24.8 °F 93% 30.22 in 10.0 mi Calm Calm - N/A   Clear
6:15 AM 28.4 °F - 24.8 °F 86% 30.23 in 10.0 mi Calm Calm - N/A   Clear
6:35 AM 28.4 °F - 24.8 °F 86% 30.23 in 10.0 mi Calm Calm - N/A   Clear
6:50 AM 26.6 °F - 24.8 °F 93% 30.23 in 10.0 mi Calm Calm - N/A   Scattered Clouds
7:55 AM 28.4 °F - 26.6 °F 93% 30.25 in 10.0 mi Calm Calm - N/A   Mostly Cloudy
8:55 AM 32.0 °F - 28.4 °F 87% 30.26 in 10.0 mi Calm Calm - N/A   Mostly Cloudy
9:45 AM 42.8 °F - 28.4 °F 57% 30.26 in 10.0 mi Calm Calm - N/A   Mostly Cloudy
10:45 AM 51.8 °F - 30.2 °F 44% 30.25 in 10.0 mi Calm Calm - N/A   Mostly Cloudy
11:45 AM 59.0 °F - 28.4 °F 31% 30.23 in 10.0 mi NE 4.6 mph - N/A   Mostly Cloudy
12:45 PM 62.6 °F - 30.2 °F 30% 30.22 in 10.0 mi WNW 13.8 mph 18.4 mph N/A   Mostly Cloudy
1:50 PM 66.2 °F - 32.0 °F 28% 30.20 in 10.0 mi SW 12.7 mph 18.4 mph N/A   Scattered Clouds
3:55 PM 64.4 °F - 32.0 °F 30% 30.20 in 10.0 mi SW 11.5 mph - N/A   Mostly Cloudy
5:45 PM 62.6 °F - 32.0 °F 32% 30.19 in 10.0 mi SW 6.9 mph - N/A   Scattered Clouds
5:55 PM 60.8 °F - 32.0 °F 34% 30.19 in 10.0 mi West 5.8 mph - N/A   Clear
6:15 PM 59.0 °F - 32.0 °F 36% 30.19 in 10.0 mi WSW 8.1 mph - N/A   Clear
6:35 PM 57.2 °F - 32.0 °F 38% 30.19 in 10.0 mi WSW 8.1 mph - N/A   Clear
6:55 PM 55.4 °F - 32.0 °F 41% 30.19 in 10.0 mi South 3.5 mph - N/A   Clear
7:15 PM 53.6 °F - 30.2 °F 41% 30.18 in 10.0 mi South 10.4 mph - N/A   Clear
7:35 PM 55.4 °F - 30.2 °F 38% 30.19 in 10.0 mi South 8.1 mph - N/A   Clear
7:55 PM 53.6 °F - 30.2 °F 41% 30.19 in 10.0 mi South 8.1 mph - N/A   Clear
8:15 PM 53.6 °F - 30.2 °F 41% 30.20 in 10.0 mi SSE 5.8 mph - N/A   Clear
8:35 PM 53.6 °F - 28.4 °F 38% 30.20 in 10.0 mi SW 3.5 mph - N/A   Clear
8:55 PM 51.8 °F - 30.2 °F 44% 30.20 in 10.0 mi Calm Calm - N/A   Clear
9:15 PM 53.6 °F - 28.4 °F 38% 30.20 in 10.0 mi SW 6.9 mph 16.1 mph N/A   Clear
9:35 PM 55.4 °F - 24.8 °F 31% 30.20 in 10.0 mi SW 15.0 mph 21.9 mph N/A   Clear
9:55 PM 55.4 °F - 23.0 °F 29% 30.21 in 10.0 mi SW 19.6 mph 25.3 mph N/A   Clear
10:15 PM 53.6 °F - 19.4 °F 26% 30.21 in 10.0 mi SW 12.7 mph 24.2 mph N/A   Clear
10:35 PM 53.6 °F - 21.2 °F 28% 30.22 in 10.0 mi SSW 16.1 mph 21.9 mph N/A   Clear
10:55 PM 53.6 °F - 19.4 °F 26% 30.22 in 10.0 mi SSW 19.6 mph 26.5 mph N/A   Clear
11:15 PM 53.6 °F - 19.4 °F 26% 30.20 in 10.0 mi SSW 16.1 mph 20.7 mph N/A   Clear
11:35 PM 53.6 °F - 23.0 °F 30% 30.20 in 10.0 mi SSW 13.8 mph 24.2 mph N/A   Clear
11:55 PM 53.6 °F - 24.8 °F 33% 30.19 in 10.0 mi SSW 15.0 mph 25.3 mph N/A   Clear